Location: Bussy-Saint-Georges
(48.8410°N, 2.7017°E)
Time: 04:37:43
(UTC+00:00)

ATLAS 5 CENTAUR R/B - Pass Details

Date: 18 October 2021
Orbit: 497 x 1159 km, 63.4° (Epoch: 25 November)

Event Time Altitude Azimuth Distance (km) Brightness Sun altitude
Rises 19:45:35 0° 251° (WSW) 2,642 5.5 -28.8°
Reaches altitude 10° 19:47:49 10° 261° (W) 1,807 4.7 -29.1°
Enters shadow 19:51:16 32° 321° (NW) 1,015 3.0 -29.6°
